Regional Weather Roundup
Issued by NWS

Home | Current Version | Previous Version | Text Only | Print | Product List | Glossary Off
Versions: 1 2 3 4 5 6 7 8 9 10 11 12 13 14 15 16 17 18 19 20 21 22 23 24 25 26 27 28 29 30 31 32 33 34 35 36 37 38 39 40 41 42 43 44 45 46 47 48 49 50

703
ASUS44 KJAN 300403
RWRMS

MISSISSIPPI HOURLY WEATHER ROUNDUP
NATIONAL WEATHER SERVICE JACKSON MS
1100 PM CDT WED OCT 29 2014

NOTE: "FAIR: INDICATES FEW OR NO CLOUDS BELOW 12,000 FEET WITH NO
SIGNIFICANT WEATHER AND/OR OBSTRUCTIONS TO VISIBILITY.

MSZ001>002-007>008-010>013-018>021-025>028-034>036-300500-
NORTHWEST MISSISSIPPI

CITY           SKY/WX    TMP DP  RH WIND       PRES   REMARKS
CLARKSDALE     FAIR      52  50  93 CALM      30.17R
CLEVELAND      FAIR      52  50  95 CALM      30.16S
GREENWOOD      CLEAR     48  46  93 CALM      30.16R
GREENVILLE     CLEAR     50  47  89 CALM      30.15S
GRENADA        FAIR      46  45  93 CALM      30.16S
OLIVE BRANCH   CLEAR     48  48 100 CALM      30.15S
OXFORD         FAIR      45  43  93 CALM      30.16F
TUNICA         CLEAR     48  45  87 CALM      30.16S
$$

MSZ003>006-009-014>017-022>024-029>033-037>039-300500-
NORTHEAST MISSISSIPPI

CITY           SKY/WX    TMP DP  RH WIND       PRES   REMARKS
COLUMBUS AFB   CLEAR     46  45  96 NW3       30.14S
CORINTH        FAIR      45  43  93 CALM      30.14S
GOLDN TRIANGLE CLEAR    N/A N/A N/A NW5       30.13S
STARKVILLE     FAIR      45  45 100 CALM      30.14S
TUPELO         CLEAR     49  43  80 CALM      30.14S
$$

MSZ040-058-300500-
CENTRAL MISSISSIPPI

CITY           SKY/WX    TMP DP  RH WIND       PRES   REMARKS
JACKSON INTL   CLEAR     52  47  83 CALM      30.14S
JACKSON HAWKNS CLEAR     57  43  59 N3        30.14S
MERIDIAN KEY   CLEAR     51  46  83 CALM      30.12S
MERIDIAN NAS   CLEAR     50  46  86 CALM      30.13R
RAYMOND        FAIR      48  45  87 CALM      30.14S
VICKSBURG      CLEAR     51  45  79 N3        30.14F
$$

MSZ059>079-300500-
SOUTH MISSISSIPPI

CITY           SKY/WX    TMP DP  RH WIND       PRES   REMARKS
BROOKHAVEN     FAIR      55  48  76 CALM      30.14S
COLUMBIA         N/A     54  52  94 MISG      30.10S
HATTIESBURG    CLEAR     59  50  72 CALM      30.11S
MCCOMB         CLEAR     60  47  61 N6        30.11S
NATCHEZ        CLEAR     55  46  71 N3        30.14S
PINE BELT      CLEAR     55  46  71 N7        30.12S
$$

MSZ080>082-300500-
COASTAL MISSISSIPPI

CITY           SKY/WX    TMP DP  RH WIND       PRES   REMARKS
BILOXI         PTCLDY    67  60  79 NE16G22   30.06S
PASCAGOULA     CLOUDY    67  58  72 N14       30.07R
GULFPORT       CLEAR     68  59  73 N12       30.06S
$$



USA.gov is the U.S. government's official web portal to all federal, state and local government web resources and services.